Overview Statistics Trail Chart Weather Telemetry Raw packets
 

This is the latest recevied weather packets stored in our database for station/object W4SNA-3. If no packets are shown the sender has not sent any weather packets the latest 10 day(s).

<< 105 106 107 108 109 110 111 >>
Time Temp. Humidity Pressure Rain* Wind** Luminosity Snow
1787795296 19.44° C 96% 1017.8 hPa 0 mm - - -
1787794998 19.44° C 96% 1017.9 hPa 0.25 mm - - -
1787794706 19.44° C 95% 1017.7 hPa 1.78 mm - - -
1787794397 19.44° C 95% 1017.7 hPa 5.08 mm - - -
1787794100 19.44° C 95% 1017.7 hPa 8.13 mm - - -
1787793802 19.44° C 95% 1017.7 hPa 9.91 mm - - -
1787793509 19.44° C 95% 1017.8 hPa 9.91 mm - - -
1787793200 19.44° C 94% 1017.9 hPa 9.91 mm - - -
1787792898 19.44° C 94% 1017.9 hPa 9.91 mm - - -
1787792610 20° C 94% 1017.7 hPa 9.91 mm - - -
1787792300 20° C 94% 1017.6 hPa 9.91 mm - - -
1787791998 20° C 93% 1017.7 hPa 9.91 mm - - -
1787791696 20° C 93% 1017.7 hPa 9.91 mm - - -
1787791400 20° C 92% 1017.6 hPa 9.65 mm - - -
1787791098 20° C 91% 1017.7 hPa 8.13 mm - - -
1787790800 20.56° C 91% 1017.8 hPa 4.83 mm - - -
1787790501 20.56° C 90% 1017.4 hPa 1.78 mm - - -
1787790198 20.56° C 89% 1017.3 hPa 0 mm - - -
1787789900 21.11° C 88% 1017.3 hPa 0 mm - - -
1787789598 21.11° C 88% 1017.2 hPa 0 mm - - -
1787789296 21.11° C 87% 1017.2 hPa 0 mm - - -
1787788998 21.11° C 87% 1017.2 hPa 0 mm - - -
1787788704 21.11° C 87% 1017.2 hPa 0 mm - - -
1787788397 21.11° C 87% 1017.4 hPa 0 mm - - -
1787788101 21.11° C 87% 1017.3 hPa 0 mm - - -

* Rain latest hour (hover to see other rain measurements)
** Current wind speed in m/s (hover to see current wind gust speed)